FW2392 Weather Reports


Display with metric or nautical units.
time (UTC)temp
F
wind
direction
speed
MPH
gust
MPH
rain 1hr
in
rain 24hr
in
rain mn
in
humidity
%
barometer
mb
20260504200902 72 242 9.0 17.0 0.00 0.00 0.00 45 1009.1
20260504200003 72 251 7.0 17.0 0.00 0.00 0.00 45 1009.4
20260504195403 72 225 6.0 17.0 0.00 0.00 0.00 44 1009.4
20260504194524 71 214 8.0 18.0 0.00 0.00 0.00 31 1009.5
20260504193604 71 234 8.0 23.0 0.00 0.00 0.00 46 1009.6
20260504192703 71 215 10.0 23.0 0.00 0.00 0.00 47 1009.8
20260504191803 71 232 8.0 15.0 0.00 0.00 0.00 29 1010.1
20260504190903 71 226 8.0 15.0 0.00 0.00 0.00 49 1010.1
20260504190003 71 223 7.0 14.0 0.00 0.00 0.00 28 1010.3
20260504185403 71 220 6.0 13.0 0.00 0.00 0.00 31 1010.5
20260504184503 71 229 6.0 15.0 0.00 0.00 0.00 46 1010.5
20260504183624 70 214 8.0 15.0 0.00 0.00 0.00 43 1010.8
20260504182703 70 212 7.0 15.0 0.00 0.00 0.00 46 1010.8
20260504181803 70 218 8.0 16.0 0.00 0.00 0.00 44 1010.9
20260504180903 69 211 7.0 17.0 0.00 0.00 0.00 46 1011.1
20260504180002 69 221 8.0 18.0 0.00 0.00 0.00 48 1011.2
20260504175423 69 228 9.0 18.0 0.00 0.00 0.00 44 1010.9
20260504174503 68 242 7.0 18.0 0.00 0.00 0.00 45 1011.2
20260504173603 68 233 9.0 18.0 0.00 0.00 0.00 46 1011.3
20260504172702 68 225 9.0 18.0 0.00 0.00 0.00 45 1011.4
20260504171803 68 238 8.0 15.0 0.00 0.00 0.00 46 1011.6
20260504170903 68 250 7.0 16.0 0.00 0.00 0.00 33 1011.7
20260504150903 64 261 8.0 16.0 0.00 0.00 0.00 48 1013.0
20260504140903 62 215 6.0 14.0 0.00 0.00 0.00 48 1013.0
20260504081803 49 191 3.0 6.0 0.00 0.00 0.00 55 1014.1
20260504080923 49 185 2.0 6.0 0.00 0.00 0.00 54 1014.2
20260504050024 48 233 3.0 5.0 0.00 0.00 0.00 54 1014.7
20260504045403 47 258 2.0 5.0 0.00 0.00 0.00 54 1014.6
20260504044503 46 294 1.0 3.0 0.00 0.00 0.00 57 1014.6
20260504043604 45 294 0.0 2.0 0.00 0.00 0.00 61 1014.7
20260504042703 46 294 0.0 2.0 0.00 0.00 0.00 60 1014.5
20260504041803 46 294 0.0 2.0 0.00 0.00 0.00 59 1014.4
20260504040903 47 294 1.0 2.0 0.00 0.00 0.00 58 1014.3
20260504040003 48 294 0.0 3.0 0.00 0.00 0.00 55 1014.2
20260504035424 48 294 1.0 3.0 0.00 0.00 0.00 56 1014.2
20260504034524 49 294 0.0 2.0 0.00 0.00 0.00 50 1014.2
20260504033624 48 294 1.0 2.0 0.00 0.00 0.00 51 1014.3
20260504032703 48 294 0.0 3.0 0.00 0.00 0.00 51 1014.4
20260504031803 48 294 1.0 3.0 0.00 0.00 0.00 52 1014.4
20260504030903 47 294 0.0 2.0 0.00 0.00 0.00 55 1014.4
20260504030003 46 0 0.0 0.0 0.00 0.00 0.00 56 1014.3
20260504025403 46 0 0.0 2.0 0.00 0.00 0.00 57 1014.4
20260504024503 46 294 0.0 2.0 0.00 0.00 0.00 59 1014.3
20260504023624 47 294 1.0 2.0 0.00 0.00 0.00 60 1014.3
20260504022703 46 0 0.0 2.0 0.00 0.00 0.00 58 1014.2
20260504021803 47 294 0.0 2.0 0.00 0.00 0.00 57 1014.2
20260504020903 47 294 1.0 2.0 0.00 0.00 0.00 57 1014.1
20260504020004 47 294 0.0 1.0 0.00 0.00 0.00 55 1014.1
20260504015403 47 0 0.0 0.0 0.00 0.00 0.00 56 1014.1
20260504014503 48 0 0.0 0.0 0.00 0.00 0.00 55 1014.0
20260504013602 49 0 0.0 2.0 0.00 0.00 0.00 54 1014.1
20260504012703 50 294 1.0 2.0 0.00 0.00 0.00 54 1014.0
20260504011803 51 294 1.0 2.0 0.00 0.00 0.00 48 1013.9
20260504010903 51 294 0.0 2.0 0.00 0.00 0.00 48 1013.8
20260504010002 51 294 0.0 3.0 0.00 0.00 0.00 49 1013.7
20260504005403 52 294 0.0 3.0 0.00 0.00 0.00 50 1013.8
20260504004524 52 294 2.0 3.0 0.00 0.00 0.00 47 1013.7
20260504003603 52 294 1.0 2.0 0.00 0.00 0.00 49 1013.7
20260504002704 52 294 0.0 2.0 0.00 0.00 0.00 47 1013.7
20260504001803 54 0 0.0 2.0 0.00 0.00 0.00 47 1013.6
20260504000903 54 294 1.0 3.0 0.00 0.00 0.00 46 1013.6
20260504000003 55 294 1.0 3.0 0.00 0.00 0.00 44 1013.5
20260503235403 55 294 1.0 4.0 0.00 0.00 0.00 44 1013.4
20260503234504 56 294 2.0 6.0 0.00 0.00 0.00 44 1013.3
20260503233603 57 286 2.0 7.0 0.00 0.00 0.00 41 1013.4
20260503232703 58 268 2.0 7.0 0.00 0.00 0.00 41 1013.3
20260503231803 58 295 2.0 11.0 0.00 0.00 0.00 41 1013.1
20260503230903 59 285 4.0 11.0 0.00 0.00 0.00 39 1013.0
20260503230003 59 293 4.0 11.0 0.00 0.00 0.00 39 1012.9
20260503225403 59 290 4.0 11.0 0.00 0.00 0.00 22 1013.0
20260503224503 59 300 5.0 17.0 0.00 0.00 0.00 38 1013.0
20260503223604 59 281 7.0 17.0 0.00 0.00 0.00 25 1013.0
20260503222703 59 284 6.0 14.0 0.00 0.00 0.00 39 1013.1
20260503221803 59 291 7.0 14.0 0.00 0.00 0.00 23 1013.1
20260503220924 59 302 5.0 13.0 0.00 0.00 0.00 39 1013.3
20260503220003 59 293 5.0 14.0 0.00 0.00 0.00 39 1013.2
20260503215403 59 285 7.0 14.0 0.00 0.00 0.00 38 1013.2
20260503214503 59 296 6.0 17.0 0.00 0.00 0.00 39 1013.2
20260503213603 59 298 6.0 17.0 0.00 0.00 0.00 39 1013.1
20260503212703 59 303 5.0 17.0 0.00 0.00 0.00 40 1013.0
20260503211803 59 278 6.0 17.0 0.00 0.00 0.00 38 1013.1
20260503210903 59 299 6.0 15.0 0.00 0.00 0.00 40 1013.2
20260503210003 58 297 5.0 15.0 0.00 0.00 0.00 39 1013.2
20260503205403 59 301 6.0 15.0 0.00 0.00 0.00 39 1013.1
20260503204503 59 297 8.0 14.0 0.00 0.00 0.00 23 1013.1
20260503203604 59 313 6.0 24.0 0.00 0.00 0.00 39 1013.1
20260503202702 58 294 8.0 24.0 0.00 0.00 0.00 22 1013.1
20260503201803 58 305 6.0 20.0 0.00 0.00 0.00 43 1013.2